Date String (YYYY-MM-DD hh:mm:ss) UTC,Instrument flags,absolute air pressure of the measurement (hPa),sample flow rate (lpm),inlet stack bypass flow (lpm),air temperature of the measurement (°C),ambient temperature measured by the external sensor (°C),aerosol sample conditioner tube jacket temperature (°C),OPC LED temperature (°C),internal box temperature (°C),relative humidity of the measurement (%),span deviation,mass concentration of particles derived from Lorenz-Mie calculation of OPC scattering (μg/m³),mass concentration of particles derived from Lorenz-Mie calculation of OPC scattering (μg/m³),mass concentration of particles derived from Lorenz-Mie calculation of OPC scattering (μg/m³)
DateTimeUTC,F1_M11,P_M11,Q1_M11,Q2_M11,T1_M11,T2_M11,T3_M11,T4_M11,T5_M11,U1_M11,ZSPAN_M11,X2_M11,X0_M11,X1_M11
2023-11-26 19:00:00,SystemResetWarning,0832.2,5.00,000.00,021.9,021.3,000.0,029.9,023.3,10.4,0000.0,0002.97,0003.81,0002.64
2023-11-26 19:01:00,SystemResetWarning,0832.2,5.00,000.00,021.9,021.4,000.0,030.0,023.3,10.4,0000.0,0002.97,0003.76,0002.68
2023-11-26 19:02:00,SystemResetWarning,0832.2,4.99,000.00,022.0,021.4,000.0,030.0,023.3,10.6,0000.0,0003.02,0003.98,0002.73
2023-11-26 19:03:00,SystemResetWarning,0832.2,5.00,000.00,022.0,021.4,000.0,030.0,023.3,10.6,0000.0,0003.06,0004.45,0002.78
2023-11-26 19:04:00,SystemResetWarning,0832.2,4.99,000.00,022.0,021.4,000.0,030.0,023.3,10.8,0000.0,0003.14,0004.64,0002.87
2023-11-26 19:05:00,SystemResetWarning,0832.2,5.00,000.00,022.0,021.4,000.0,030.0,023.4,10.8,0000.0,0003.20,0004.72,0002.98
2023-11-26 19:06:00,SystemResetWarning,0832.2,5.00,000.00,022.0,021.4,000.0,030.0,023.4,10.6,0000.0,0003.27,0004.86,0003.09
2023-11-26 19:07:00,SystemResetWarning,0832.2,5.00,000.00,022.0,021.4,000.0,030.1,023.4,10.6,0000.0,0003.32,0004.95,0003.14
2023-11-26 19:08:00,SystemResetWarning,0832.2,5.00,000.00,022.0,021.4,000.0,030.1,023.4,10.6,0000.0,0003.35,0004.82,0003.16
2023-11-26 19:09:00,SystemResetWarning,0832.2,5.00,000.00,022.1,021.4,000.0,030.1,023.4,10.8,0000.0,0003.38,0004.78,0003.18
2023-11-26 19:10:00,SystemResetWarning,0832.1,5.01,000.00,022.1,021.4,000.0,030.1,023.4,10.7,0000.0,0003.42,0004.88,0003.21
2023-11-26 19:11:00,SystemResetWarning,0832.1,5.00,000.00,022.1,021.5,000.0,030.1,023.4,10.5,0000.0,0003.45,0004.95,0003.24
2023-11-26 19:12:00,SystemResetWarning,0832.2,5.00,000.00,022.1,021.5,000.0,030.2,023.4,10.5,0000.0,0003.50,0005.07,0003.28
2023-11-26 19:13:00,SystemResetWarning,0832.2,5.00,000.00,022.1,021.5,000.0,030.2,023.4,10.5,0000.0,0003.56,0005.04,0003.32
2023-11-26 19:14:00,SystemResetWarning,0832.2,5.00,000.00,022.1,021.5,000.0,030.2,023.5,9.9,0000.0,0003.59,0004.74,0003.35
2023-11-26 19:15:00,SystemResetWarning,0832.2,5.00,000.00,022.1,021.5,000.0,030.2,023.5,10.0,0000.0,0003.62,0004.89,0003.36
2023-11-26 19:16:00,SystemResetWarning,0832.2,5.00,000.00,022.1,021.5,000.0,030.2,023.5,10.1,0000.0,0003.63,0004.94,0003.37
2023-11-26 19:17:00,SystemResetWarning,0832.1,5.00,000.00,022.2,021.5,000.0,030.2,023.5,9.8,0000.0,0003.63,0004.90,0003.37
2023-11-26 19:18:00,SystemResetWarning,0832.1,5.00,000.00,022.2,021.5,000.0,030.2,023.5,9.8,0000.0,0003.63,0004.95,0003.37
2023-11-26 19:19:00,SystemResetWarning,0832.0,5.00,000.00,022.2,021.6,000.0,030.3,023.5,9.8,0000.0,0003.61,0004.95,0003.36
2023-11-26 19:20:00,SystemResetWarning,0832.1,5.00,000.00,022.2,021.6,000.0,030.3,023.6,9.8,0000.0,0003.58,0004.97,0003.34
2023-11-26 19:21:00,SystemResetWarning,0832.0,5.00,000.00,022.2,021.6,000.0,030.3,023.6,9.7,0000.0,0003.53,0004.81,0003.32
2023-11-26 19:22:00,SystemResetWarning,0832.0,5.00,000.00,022.2,021.6,000.0,030.3,023.6,9.7,0000.0,0003.51,0004.99,0003.29
2023-11-26 19:23:00,SystemResetWarning,0832.0,5.00,000.00,022.2,021.6,000.0,030.3,023.6,9.6,0000.0,0003.48,0005.01,0003.26
2023-11-26 19:24:00,SystemResetWarning,0831.9,5.01,000.00,022.3,021.6,000.0,030.3,023.6,9.7,0000.0,0003.45,0004.94,0003.24
2023-11-26 19:25:00,SystemResetWarning,0831.9,5.00,000.00,022.3,021.6,000.0,030.3,023.6,9.9,0000.0,0003.43,0004.84,0003.23
2023-11-26 19:26:00,SystemResetWarning,0831.9,5.00,000.00,022.3,021.6,000.0,030.4,023.6,9.7,0000.0,0003.37,0004.55,0003.21
2023-11-26 19:27:00,SystemResetWarning,0832.0,5.00,000.00,022.3,021.6,000.0,030.4,023.6,9.5,0000.0,0003.35,0004.49,0003.19
2023-11-26 19:28:00,SystemResetWarning,0832.0,5.00,000.00,022.3,021.6,000.0,030.4,023.6,9.7,0000.0,0003.33,0004.67,0003.17
2023-11-26 19:29:00,SystemResetWarning,0832.0,5.00,000.00,022.3,021.7,000.0,030.4,023.7,9.8,0000.0,0003.32,0004.59,0003.16
2023-11-26 19:30:00,SystemResetWarning,0832.0,5.00,000.00,022.3,021.7,000.0,030.4,023.7,9.7,0000.0,0003.30,0004.51,0003.15
2023-11-26 19:31:00,SystemResetWarning,0832.0,5.00,000.00,022.3,021.7,000.0,030.4,023.7,9.6,0000.0,0003.29,0004.36,0003.15
2023-11-26 19:32:00,SystemResetWarning,0832.0,5.00,000.00,022.4,021.7,000.0,030.5,023.7,9.7,0000.0,0003.32,0004.49,0003.16
2023-11-26 19:33:00,SystemResetWarning,0832.0,5.01,000.00,022.4,021.7,000.0,030.5,023.7,9.6,0000.0,0003.33,0004.32,0003.16
2023-11-26 19:34:00,SystemResetWarning,0831.9,5.00,000.00,022.4,021.7,000.0,030.5,023.8,9.8,0000.0,0003.33,0004.19,0003.17
2023-11-26 19:35:00,SystemResetWarning,0831.8,5.00,000.00,022.4,021.8,000.0,030.5,023.8,9.7,0000.0,0003.34,0004.27,0003.18
2023-11-26 19:36:00,SystemResetWarning,0831.8,4.99,000.00,022.4,021.8,000.0,030.5,023.8,9.9,0000.0,0003.35,0004.31,0003.17
2023-11-26 19:37:00,SystemResetWarning,0832.0,4.99,000.00,022.4,021.8,000.0,030.5,023.8,9.7,0000.0,0003.39,0004.43,0003.18
2023-11-26 19:38:00,SystemResetWarning,0832.0,5.00,000.00,022.5,021.8,000.0,030.5,023.9,9.7,0000.0,0003.41,0004.53,0003.20
2023-11-26 19:39:00,SystemResetWarning,0832.2,5.00,000.00,022.5,021.8,000.0,030.6,023.9,9.7,0000.0,0003.41,0004.29,0003.21
2023-11-26 19:40:00,SystemResetWarning,0832.1,4.99,000.00,022.5,021.8,000.0,030.6,023.9,9.7,0000.0,0003.41,0004.27,0003.20
2023-11-26 19:41:00,SystemResetWarning,0831.7,5.00,000.00,022.5,021.9,000.0,030.6,023.9,9.2,0000.0,0003.40,0004.28,0003.20
2023-11-26 19:42:00,SystemResetWarning,0831.7,5.00,000.00,022.6,021.9,000.0,030.6,023.9,9.2,0000.0,0003.41,0005.18,0003.20
2023-11-26 19:43:00,SystemResetWarning,0831.7,5.00,000.00,022.6,021.9,000.0,030.6,024.0,9.2,0000.0,0003.38,0005.19,0003.18
2023-11-26 19:44:00,SystemResetWarning,0831.7,4.99,000.00,022.6,021.9,000.0,030.6,024.0,9.2,0000.0,0003.37,0005.15,0003.18
2023-11-26 19:45:00,SystemResetWarning,0831.7,5.00,000.00,022.6,022.0,000.0,030.7,024.0,9.4,0000.0,0003.36,0005.13,0003.18
2023-11-26 19:46:00,SystemResetWarning,0831.7,5.00,000.00,022.6,022.0,000.0,030.7,024.0,9.7,0000.0,0003.35,0005.09,0003.17
2023-11-26 19:47:00,SystemResetWarning,0831.7,5.00,000.00,022.6,022.0,000.0,030.7,024.0,10.2,0000.0,0003.32,0005.01,0003.15
2023-11-26 19:48:00,SystemResetWarning,0831.7,5.00,000.00,022.7,022.0,000.0,030.7,024.1,10.5,0000.0,0003.26,0004.93,0003.11
2023-11-26 19:49:00,SystemResetWarning,0831.6,5.00,000.00,022.7,022.0,000.0,030.7,024.1,10.1,0000.0,0003.22,0004.82,0003.08
2023-11-26 19:50:00,SystemResetWarning,0831.6,5.00,000.00,022.7,022.1,000.0,030.8,024.1,10.1,0000.0,0003.20,0004.80,0003.04
2023-11-26 19:51:00,SystemResetWarning,0831.6,5.00,000.00,022.7,022.1,000.0,030.8,024.1,10.0,0000.0,0003.19,0004.79,0003.03
2023-11-26 19:52:00,SystemResetWarning,0831.6,5.00,000.00,022.8,022.1,000.0,030.8,024.2,10.2,0000.0,0003.20,0004.85,0003.04
2023-11-26 19:53:00,SystemResetWarning,0831.6,4.99,000.00,022.8,022.1,000.0,030.8,024.2,10.2,0000.0,0003.23,0004.30,0003.08
2023-11-26 19:54:00,SystemResetWarning,0831.5,5.00,000.00,022.8,022.2,000.0,030.8,024.2,10.5,0000.0,0003.30,0004.35,0003.14
2023-11-26 19:55:00,SystemResetWarning,0831.5,5.00,000.00,022.8,022.2,000.0,030.9,024.2,10.6,0000.0,0003.36,0004.46,0003.17
2023-11-26 19:56:00,SystemResetWarning,0831.6,5.00,000.00,022.8,022.2,000.0,030.9,024.2,10.7,0000.0,0003.40,0004.56,0003.19
2023-11-26 19:57:00,SystemResetWarning,0831.6,5.00,000.00,022.8,022.2,000.0,030.9,024.3,10.5,0000.0,0003.42,0004.56,0003.22
2023-11-26 19:58:00,SystemResetWarning,0831.6,5.00,000.00,022.9,022.2,000.0,030.9,024.3,10.7,0000.0,0003.47,0004.59,0003.27
2023-11-26 19:59:00,SystemResetWarning,0831.6,5.00,000.00,022.9,022.2,000.0,030.9,024.3,10.7,0000.0,0003.55,0004.63,0003.34
